User: anonymous   Login
Location: Unspecified
(0.0000°N, 0.0000°E)
Time: 03:05:33
(UTC+00:00)
Language:

GALILEO-FM4 - Orbit

View from above orbital plane
View from above orbital plane
View from above satellite
View from above satellite

Ground track
Ground track

The orbit data is extracted from the following two-line orbital elements,

1 38858U 12055B   19051.17011238 -.00000002  00000-0  00000+0 0  9996
2 38858  54.9242 175.0950 0001267 247.0488 112.8904  1.70473514 39522
Epoch (UTC): 20 February 2019 04:04:57
Eccentricity: 0.0001267
inclination: 54.9242°
perigee height: 23218 km
apogee height: 23226 km
right ascension of ascending node: 175.0950°
argument of perigee: 247.0488°
revolutions per day: 1.70473514
mean anomaly at epoch: 112.8904°
orbit number at epoch: 3952

The dashed part of the orbit path shows where the satellite is in the earth's shadow,  

DLR